sat.trackr.live / text

‹ back to catalog

STARLINK-5763

NORAD 56505 · 2023-065C

PAYLOAD ACTIVE UNKNOWN

§ Identity

Operator
Country
US
Launch date
2023-05-14
Launch site
AFETR
Launch vehicle
Mass (kg)
RCS (m²)

Purposes: comms

External: N2YO · Heavens-Above · Gunter

§ Orbital elements

Epoch: 2026-05-24T23:31:24.797568Z

Period
94.27 min
Inclination
43.0048°
Eccentricity
0.0001778
Mean motion
15.27578798 rev/d
Perigee alt
481.8 km
Apogee alt
484.3 km
Semi-major
6,861.2 km
B*
4.1064e-5
RAAN
141.9534°
Arg perigee
282.7217°
Mean anomaly
77.3436°
Rev number
16,826

§ Raw data

STARLINK-57631 56505U 23065C   26144.98014812  .00000868  00000+0  41064-4 0  99972 56505  43.0048 141.9534 0001778 282.7217  77.3436 15.27578798168263

JSON: /api/v1/satellites/56505 · /tle

For live sub-satellite position, see the globe view (requires WebGL).

§ Visibility from observer

Set your observer location to see the next 7 days of passes ≥ 10°. The values pass through the URL so the page stays shareable.

No JS? Fill the form by hand. The geolocation button needs JavaScript.